Weather Roundup
Issued by NWS Chicago, IL

Home | Current Version | Previous Version | Graphics & Text | Print | Product List | Glossary On
Versions: 1 2 3 4 5 6 7 8 9 10 11 12 13 14 15 16 17 18 19 20 21 22 23 24 25 26 27 28 29 30 31 32 33 34 35 36 37 38 39 40 41 42 43 44 45 46 47 48 49 50
000
NZUS59 KLOT 231109
HRRLOT

CHICAGO AREA WEATHER ROUNDUP
NATIONAL WEATHER SERVICE CHICAGO/ROMEOVILLE IL
600 AM CDT FRI JUN 23 2017

NOTE: "FAIR" INDICATES FEW OR NO CLOUDS BELOW 12,000 FEET WITH NO
SIGNIFICANT WEATHER AND/OR OBSTRUCTIONS TO VISIBILITY.

* THESE STATIONS ARE NOT UNDER NWS QUALITY CONTROL. THEY ALSO MAY NOT
  REPORT WEATHER SUCH AS PRECIPITATION OR FOG.

ILZ005-006-012>014-019>023-231200-
NORTHEAST ILLINOIS

CITY           SKY/WX    TMP DP  RH WIND       PRES   REMARKS
OHARE          TSTM      68  65  90 NW13      29.66R
MIDWAY         TSTM      68  66  93 W9        29.67R FOG
AURORA         LGT RAIN  68  67  96 NW7       29.65F
LANSING*       CLOUDY    75  70  84 SW10      29.65S
JOLIET*        TSTM      69  68  96 NW5       29.67R
WAUKEGAN       LGT RAIN  65  65 100 N5        29.68R FOG
DUPAGE AIRPORT LGT RAIN  67  67 100 N9        29.62F
WHEELING       LGT RAIN  66  66 100 NW6       29.68R
MORRIS*        CLOUDY    67  66  95 W6        29.67F
LEWIS AIRPORT* CLOUDY    67  65  91 NW6       29.66F
NORTHERLY ISL    N/A     65  63  93 CALM        N/A
$$

WIZ051-052-058>065-066-070>072-231200-
SOUTHEAST WISCONSIN

CITY           SKY/WX    TMP DP  RH WIND       PRES   REMARKS
MILWAUKEE      CLOUDY    65  64  97 N3        29.68S
KENOSHA*       CLOUDY    66  63  90 N9        29.68R
RACINE*        LGT RAIN  65  63  93 N8        29.69R
WAUKESHA       CLOUDY    63  63 100 NW7       29.65S
WEST BEND      CLOUDY    63  63 100 NW7       29.68S
$$

INZ001>003-010>013-019-020-231200-
NORTHWEST INDIANA

CITY           SKY/WX    TMP DP  RH WIND       PRES   REMARKS
GARY*          NOT AVBL
MICHIGAN CITY* NOT AVBL
RENSSELAER*    NOT AVBL
VALPARAISO     CLOUDY    75  73  93 W9        29.66F
$$

LMZ740>746-231200-
SOUTHERN LAKE MICHIGAN

STATION/POSITION TIME  SKY/WX   TEMP WIND        PRES    VSBY
                                AIR  DIR/SP/G
                 (UTC)          (F)  (DEG/KT/KT) (MB)    (MI)
HARRISON CRIB    1040            65  360/ 16/ 17   N/A
BURNHAM HARBOR   1100            65                N/A
CALUMET HARBOR   1048            66  290/ 11/ 18 1005.2R
BURNS HARBOR     1040            73  250/  9/ 13 1004.7S
MICHIGAN CITY    1040            72  230/ 16/ 17   N/A
$$

ABBREVIATIONS USED IN REMARKS
   TC - TEMPERATURE IN CELSIUS
  WCI - WIND CHILL INDEX
   HX - HEAT INDEX
  VSB - VISIBILITY
$$



USA.gov is the U.S. government's official web portal to all federal, state and local government web resources and services.